"2010-05-12 00:00:00",104140,8.57,22.12,4.573,0.997,9.32,100.455,0.461,1.693,97.1,0,109.6,13.57,1.21,344.1
"2010-05-12 00:00:30",104141,9.37,27.55,3.468,0.918,9.43,100.4494,0.446,1.69,97,0,109.6,13.57,1.20,349.5
"2010-05-12 00:01:00",104142,8.46,22.55,4.258,0.688,9.16,100.4517,0.452,1.67,97.1,0,109.6,13.57,1.21,344.5
"2010-05-12 00:01:30",104143,8.1,23.45,5.832,1.413,9.03,100.4502,0.448,1.67,97.1,0,109.6,13.57,1.20,345.5
"2010-05-12 00:02:00",104144,8.16,24.1,5.299,1.744,8.86,100.4409,0.425,1.633,97.1,0,109.6,13.57,1.18,346.1
"2010-05-12 00:02:30",104145,7.465,22.77,3.49,0.885,9.02,100.4302,0.397,1.632,97.1,0,109.6,13.57,1.15,344.8
"2010-05-12 00:03:00",104146,7.771,21.97,3.697,0.708,8.86,100.4242,0.382,1.627,97.1,0,109.6,13.57,1.14,344.0
"2010-05-12 00:03:30",104147,8.49,15.82,4.168,1.359,8.79,100.4237,0.381,1.623,97.1,0,109.6,13.57,1.13,337.8
"2010-05-12 00:04:00",104148,8.84,12.35,4.862,1.104,8.73,100.4237,0.381,1.609,97.1,0,109.6,13.57,1.13,334.4
"2010-05-12 00:04:30",104149,8.23,14.42,3.627,0.928,8.94,100.4268,0.389,1.605,97.1,0,109.6,13.57,1.14,336.4
"2010-05-12 00:05:00",104150,8.49,13.07,2.921,0.831,8.77,100.4279,0.392,1.582,97.1,0,109.6,13.57,1.14,335.1
"2010-05-12 00:05:30",104151,9.69,10.6,5.001,1.115,8.86,100.4259,0.387,1.593,97.1,0,109.6,13.57,1.14,332.6
"2010-05-12 00:06:00",104152,9.4,10.08,4.342,1.325,8.76,100.4107,0.348,1.589,97.1,0,109.6,13.57,1.10,332.1
"2010-05-12 00:06:30",104153,10.44,6.909,3.957,1.736,8.83,100.3991,0.318,1.558,97.1,0,109.6,13.56,1.07,328.9
"2010-05-12 00:07:00",104154,8.54,11.38,2.141,0.803,8.83,100.3991,0.318,1.558,97.1,0,109.6,13.56,1.07,333.4
"2010-05-12 00:07:30",104155,8.74,11.92,2.479,1.013,8.99,100.3994,0.319,1.562,97.1,0,109.6,13.56,1.07,333.9
"2010-05-12 00:08:00",104156,8.43,11.76,3.528,0.721,8.85,100.3999,0.32,1.532,97.1,0,109.6,13.56,1.07,333.8
"2010-05-12 00:08:30",104157,9.09,10.11,3.134,0.8,6.629,100.4005,0.322,1.522,97.1,0,109.6,13.56,1.07,332.1
"2010-05-12 00:09:00",104158,8.79,10.11,3.12,0.798,-4.902,100.4002,0.321,1.516,97.2,0,109.6,13.56,1.07,332.1
"2010-05-12 00:09:30",104159,9.07,10.77,3.2,0.914,7.201,100.398,0.315,1.533,97.2,0,109.6,13.56,1.07,332.8
"2010-05-12 00:10:00",104160,8.99,11.64,3.657,0.877,8.76,100.3869,0.287,1.499,97.2,0,109.6,13.56,1.04,333.6
"2010-05-12 00:10:30",104161,8.94,11.38,4.347,0.762,8.51,100.3745,0.255,1.482,97.2,0,109.6,13.56,1.01,333.4
"2010-05-12 00:11:00",104162,8.95,14.12,3.252,0.859,8.34,100.3717,0.248,1.465,97.2,0,109.6,13.56,1.00,336.1
"2010-05-12 00:11:30",104163,9.32,12.13,3.198,0.783,8.37,100.3626,0.225,1.468,97.2,0,109.6,13.57,0.98,334.1
"2010-05-12 00:12:00",104164,8.75,15.89,3.577,0.779,8.37,100.3408,0.169,1.419,97.2,0,109.6,13.57,0.92,337.9
"2010-05-12 00:12:30",104165,8.8,16.5,3.514,0.85,8.13,100.3382,0.163,1.403,97.1,0,109.6,13.57,0.92,338.5
"2010-05-12 00:13:00",104166,8.56,15.65,3.177,0.886,7.8,100.3371,0.16,1.383,97.2,0,109.7,13.57,0.91,337.6
"2010-05-12 00:13:30",104167,7.959,18.98,3.356,0.903,8.02,100.3332,0.15,1.362,97.2,0,109.6,13.57,0.90,341.0
"2010-05-12 00:14:00",104168,8.45,20.3,4.067,0.865,8.3,100.3261,0.132,1.335,97.2,0,109.6,13.57,0.88,342.3
"2010-05-12 00:14:30",104169,8.19,20.03,3.801,0.916,8.37,100.3247,0.128,1.335,97.2,0,109.6,13.57,0.88,342.0
"2010-05-12 00:15:00",104170,8.91,23.52,4.578,0.921,8.36,100.3187,0.113,1.305,97.2,0,109.6,13.57,0.87,345.5
"2010-05-12 00:15:30",104171,8.42,25.04,3.791,1.19,8.42,100.3105,0.092,1.315,97.2,0,109.6,13.57,0.84,347.0
"2010-05-12 00:16:00",104172,8.27,24.26,4.097,1.012,8.42,100.3074,0.084,1.291,97.2,0,109.6,13.57,0.84,346.3
"2010-05-12 00:16:30",104173,8.46,23.41,3.973,1.121,8.46,100.3057,0.08,1.305,97.2,0,109.6,13.57,0.83,345.4
"2010-05-12 00:17:00",104174,8.18,20.65,4.756,0.94,8.44,100.3057,0.08,1.275,97.2,0,109.6,13.57,0.83,342.6
"2010-05-12 00:17:30",104175,7.74,21.31,4.205,0.964,8.66,100.3057,0.08,1.276,97.2,0,109.6,13.58,0.83,343.3
"2010-05-12 00:18:00",104176,7.844,20.97,5.271,0.868,8.56,100.3057,0.08,1.253,97.2,0,109.6,13.58,0.83,343.0
"2010-05-12 00:18:30",104177,8.37,23.28,6.137,1.169,8.69,100.3043,0.076,1.243,97.2,0,109.6,13.58,0.83,345.3
"2010-05-12 00:19:00",104178,7.68,20.78,4.22,0.848,8.73,100.2952,0.053,1.233,97.2,0,109.6,13.58,0.81,342.8
"2010-05-12 00:19:30",104179,8.21,22.34,3.949,1.099,8.55,100.2785,0.011,1.224,97.2,0,109.6,13.58,0.76,344.3
"2010-05-12 00:20:00",104180,7.879,22.41,4.531,0.851,8.58,100.2717,-0.007,1.213,97.2,0,109.6,13.58,0.75,344.4
"2010-05-12 00:20:30",104181,8.02,24.23,4.564,1.161,8.56,100.272,-0.006,1.211,97.2,0,109.6,13.58,0.75,346.2
"2010-05-12 00:21:00",104182,9,26.75,4.515,1.124,8.46,100.2731,-0.003,1.207,97.2,0,109.6,13.58,0.75,348.8
"2010-05-12 00:21:30",104183,8.63,26.43,3.211,0.917,8.87,100.2763,0.005,1.237,97.3,0,109.6,13.58,0.76,348.4
"2010-05-12 00:22:00",104184,9.12,27.92,3.115,1.005,8.64,100.2743,0,1.213,97.3,0,109.6,13.58,0.75,349.9
"2010-05-12 00:22:30",104185,9.87,28.23,3.693,1.205,8.83,100.2723,-0.005,1.21,97.3,0,109.6,13.58,0.75,350.2
"2010-05-12 00:23:00",104186,9.01,25.65,3.603,1.187,8.82,100.2743,0,1.217,97.3,0,109.6,13.57,0.75,347.6
"2010-05-12 00:23:30",104187,9.27,25.73,4.827,1.546,8.94,100.2941,0.05,1.224,97.3,0,109.6,13.57,0.80,347.7
"2010-05-12 00:24:00",104188,10.57,29.52,3.222,0.761,8.88,100.3057,0.08,1.225,97.3,0,109.6,13.57,0.83,351.5
"2010-05-12 00:24:30",104189,9.68,27.62,4.52,1.606,7.059,100.3057,0.08,1.238,97.3,0,109.6,13.57,0.83,349.6
"2010-05-12 00:25:00",104190,8.59,24.41,4.769,1.192,9.04,100.3057,0.08,1.233,97.3,0,109.6,13.57,0.83,346.4
"2010-05-12 00:25:30",104191,8.41,25.87,3.071,0.984,9.43,100.3057,0.08,1.267,97.4,0,109.6,13.57,0.83,347.9
"2010-05-12 00:26:00",104192,7.992,23.6,5.358,0.853,9.22,100.3057,0.08,1.259,97.3,0,109.6,13.57,0.83,345.6
"2010-05-12 00:26:30",104193,8.15,25.78,4.044,0.876,8.38,100.3057,0.08,1.255,97.3,0,109.6,13.57,0.83,347.8
"2010-05-12 00:27:00",104194,8.4,24.73,3.586,0.857,8.49,100.3057,0.08,1.263,97.4,0,109.6,13.57,0.83,346.7
"2010-05-12 00:27:30",104195,8.04,24.25,3.012,0.905,-5.791,100.3057,0.08,1.255,97.4,0,109.6,13.57,0.83,346.2
"2010-05-12 00:28:00",104196,7.683,19.57,5.156,0.805,3.898,100.3006,0.067,1.251,97.4,0,109.6,13.57,0.82,341.6
"2010-05-12 00:28:30",104197,7.812,21.01,6.286,0.798,-1.016,100.2898,0.039,1.247,97.4,0,109.6,13.57,0.79,343.0
"2010-05-12 00:29:00",104198,8.11,18.78,3.602,0.726,-0.847,100.2754,0.003,1.238,97.4,0,109.5,13.58,0.75,340.8
"2010-05-12 00:29:30",104199,7.965,15.06,3.251,0.839,-6.799,100.2717,-0.007,1.24,97.4,0,109.6,13.58,0.75,337.1
"2010-05-12 00:30:00",104200,7.506,18.19,4.791,0.77,-26.07,100.2717,-0.007,1.227,97.3,0,109.6,13.58,0.75,340.2
"2010-05-12 00:30:30",104201,7.683,18.64,4.251,0.921,-19.64,100.2652,-0.023,1.197,97.3,0,109.6,13.59,0.73,340.6
"2010-05-12 00:31:00",104202,7.561,19.43,3.399,0.803,4.989,100.24,-0.088,1.17,97.3,0,109.6,13.59,0.66,341.4
"2010-05-12 00:31:30",104203,8.01,17.45,5.412,0.875,-3.523,100.2378,-0.093,1.14,97.3,0,109.6,13.59,0.66,339.5
"2010-05-12 00:32:00",104204,7.7,19.07,5.178,0.685,-7.875,100.2372,-0.095,1.122,97.3,0,109.6,13.59,0.66,341.1
"2010-05-12 00:32:30",104205,7.766,13.21,4.752,0.592,9.91,100.231,-0.111,1.108,97.3,0,109.6,13.59,0.64,335.2
"2010-05-12 00:33:00",104206,8.55,8.28,3.152,0.936,9.55,100.2197,-0.14,1.102,97.3,0,109.6,13.59,0.61,330.3
"2010-05-12 00:33:30",104207,8.2,8.26,3.415,0.827,9.25,100.2044,-0.179,1.084,97.3,0,109.6,13.59,0.57,330.3
"2010-05-12 00:34:00",104208,8.67,6.101,3.125,0.889,-15.61,100.2038,-0.18,1.072,97.2,0,109.6,13.59,0.57,328.1
"2010-05-12 00:34:30",104209,8.1,10.9,3.939,0.82,0.69,100.2038,-0.18,1.052,97.3,0,109.6,13.59,0.57,332.9
"2010-05-12 00:35:00",104210,8.22,12.22,3.156,0.767,2.355,100.2038,-0.18,1.042,97.3,0,109.6,13.59,0.57,334.2
"2010-05-12 00:35:30",104211,8.5,15.58,4.422,1.081,-6.817,100.2024,-0.184,1.049,97.3,0,109.6,13.59,0.57,337.6
"2010-05-12 00:36:00",104212,8.83,21.82,4.562,1.014,5.079,100.201,-0.187,1.025,97.3,0,109.6,13.59,0.56,343.8
"2010-05-12 00:36:30",104213,8.77,24.91,3.973,0.833,-0.386,100.1761,-0.251,1.003,97.3,0,109.6,13.59,0.50,346.9
"2010-05-12 00:37:00",104214,9.86,29.74,3.526,0.706,4.654,100.171,-0.264,0.993,97.3,0,109.6,13.59,0.49,351.7
"2010-05-12 00:37:30",104215,10.35,31.1,2.905,0.718,2.4,100.1712,-0.263,1.003,97.3,0,109.6,13.59,0.49,353.1
"2010-05-12 00:38:00",104216,10.46,31.54,3.085,0.69,-1.667,100.1715,-0.262,0.979,97.2,0,109.6,13.59,0.49,353.5
"2010-05-12 00:38:30",104217,10.75,30.61,4.154,0.759,8.27,100.173,-0.259,0.974,97.3,0,109.6,13.59,0.49,352.6
"2010-05-12 00:39:00",104218,10.6,31.49,2.878,0.672,8.06,100.1747,-0.254,0.961,97.3,0,109.6,13.59,0.50,353.5
"2010-05-12 00:39:30",104219,10.55,30.17,4.203,0.651,3.296,100.1704,-0.265,0.976,97.3,0,109.6,13.58,0.49,352.2
"2010-05-12 00:40:00",104220,10.35,30.53,4.088,0.915,9.51,100.1486,-0.321,0.914,97.3,0,109.6,13.58,0.43,352.5
"2010-05-12 00:40:30",104221,9.51,28.7,4.117,1.306,7.065,100.1718,-0.261,0.934,97.3,0,109.6,13.58,0.49,350.7
"2010-05-12 00:41:00",104222,8.98,28.35,3.365,1.095,8.98,100.171,-0.264,0.932,97.3,0,109.6,13.58,0.49,350.4
"2010-05-12 00:41:30",104223,8.53,26.52,3.396,1.044,8.97,100.1506,-0.316,0.931,97.3,0,109.6,13.58,0.44,348.5
"2010-05-12 00:42:00",104224,8.64,25.91,3.418,0.84,8.85,100.1461,-0.327,0.928,97.3,0,109.6,13.58,0.42,347.9
"2010-05-12 00:42:30",104225,8.27,24.74,4.027,0.858,9.14,100.1495,-0.318,0.893,97.3,0,109.6,13.58,0.43,346.7
"2010-05-12 00:43:00",104226,8.23,20.52,4.367,0.815,8,100.1472,-0.324,0.87,97.3,0,109.6,13.58,0.43,342.5
"2010-05-12 00:43:30",104227,9.3,25.56,4.449,0.866,8.39,100.1512,-0.314,0.9,97.3,0,109.6,13.58,0.44,347.6
"2010-05-12 00:44:00",104228,8.68,24.41,5.138,0.8,8.97,100.1387,-0.346,0.882,97.3,0,109.6,13.58,0.40,346.4
"2010-05-12 00:44:30",104229,8.67,24.82,3.437,1.227,4.216,100.1396,-0.344,0.864,97.3,0,109.6,13.59,0.41,346.8
"2010-05-12 00:45:00",104230,9.63,27.9,3.492,0.837,8.23,100.1534,-0.308,0.882,97.4,0,109.6,13.59,0.44,349.9
"2010-05-12 00:45:30",104231,9.38,28.16,4.349,0.697,9.37,100.1464,-0.326,0.884,97.4,0,109.6,13.59,0.42,350.2
"2010-05-12 00:46:00",104232,9.11,27.3,3.945,0.928,8.42,100.1384,-0.347,0.873,97.4,0,109.6,13.59,0.40,349.3
"2010-05-12 00:46:30",104233,9.4,29.11,2.881,0.868,8.3,100.1305,-0.367,0.849,97.4,0,109.6,13.59,0.38,351.1
"2010-05-12 00:47:00",104234,9.72,30.73,2.127,0.879,8.03,100.1226,-0.387,0.839,97.4,0,109.5,13.59,0.36,352.7
"2010-05-12 00:47:30",104235,9.64,29.88,3.425,0.641,7.47,100.124,-0.383,0.841,97.4,0,109.6,13.59,0.37,351.9
"2010-05-12 00:48:00",104236,9.64,30.04,3.506,0.73,7.423,100.1359,-0.353,0.834,97.4,0,109.6,13.59,0.40,352.0
"2010-05-12 00:48:30",104237,9.43,29.54,3.271,0.863,7.999,100.141,-0.34,0.85,97.4,0,109.6,13.59,0.41,351.5
"2010-05-12 00:49:00",104238,9.61,29.91,2.471,0.727,8.18,100.1433,-0.334,0.847,97.5,0,109.6,13.59,0.42,351.9
"2010-05-12 00:49:30",104239,9.04,28.38,3.271,1.016,8.55,100.1552,-0.304,0.861,97.5,0,109.6,13.59,0.45,350.4
"2010-05-12 00:50:00",104240,8.24,26.19,3.171,0.862,8.61,100.1529,-0.31,0.861,97.5,0,109.6,13.59,0.44,348.2
"2010-05-12 00:50:30",104241,8.03,23.57,3.608,0.784,8.67,100.158,-0.297,0.849,97.5,0,109.6,13.59,0.45,345.6
"2010-05-12 00:51:00",104242,8.4,13.14,3.791,0.633,7.815,100.1549,-0.305,0.858,97.5,0,109.6,13.59,0.45,335.1
"2010-05-12 00:51:30",104243,8.38,11.84,3.713,0.847,7.847,100.1438,-0.333,0.863,97.5,0,109.6,13.59,0.42,333.8
"2010-05-12 00:52:00",104244,8.91,8.12,3.691,0.822,7.67,100.1424,-0.336,0.846,97.5,0,109.6,13.59,0.41,330.1
"2010-05-12 00:52:30",104245,9.36,6.647,3.364,0.819,8.26,100.1356,-0.354,0.835,97.5,0,109.6,13.59,0.40,328.6
"2010-05-12 00:53:00",104246,9.37,6.19,3.33,0.712,6.345,100.1277,-0.374,0.84,97.5,0,109.5,13.6,0.38,328.2
"2010-05-12 00:53:30",104247,10.35,3.999,4.133,1.303,8.1,100.1274,-0.375,0.84,97.5,0,109.6,13.59,0.38,326.0
"2010-05-12 00:54:00",104248,11.1,2.85,3.937,0.785,-0.446,100.1274,-0.375,0.817,97.5,0,109.6,13.6,0.38,324.9
"2010-05-12 00:54:30",104249,11.23,2.791,3.396,1.007,-2.654,100.1291,-0.37,0.828,97.5,0,109.6,13.59,0.38,324.8
"2010-05-12 00:55:00",104250,10.45,4.133,3.624,0.586,-38.76,100.1288,-0.371,0.828,97.5,0,109.5,13.6,0.38,326.1
"2010-05-12 00:55:30",104251,9.92,6.783,3.448,0.816,-29.13,100.1297,-0.369,0.843,97.5,0,109.6,13.59,0.38,328.8
"2010-05-12 00:56:00",104252,9.3,10.35,3.546,0.854,-16.19,100.1314,-0.365,0.843,97.5,0,109.6,13.59,0.39,332.4
"2010-05-12 00:56:30",104253,8.92,14.1,3.297,0.777,-21.84,100.1353,-0.355,0.851,97.5,0,109.6,13.59,0.40,336.1
"2010-05-12 00:57:00",104254,8.22,19.14,4.542,0.736,11.51,100.1453,-0.329,0.849,97.5,0,109.6,13.59,0.42,341.1
"2010-05-12 00:57:30",104255,8.16,19.99,4.855,0.585,-30.45,100.1472,-0.324,0.865,97.5,0,109.6,13.59,0.43,342.0
"2010-05-12 00:58:00",104256,8.05,20.14,4.896,0.686,-31.6,100.1461,-0.327,0.842,97.5,0,109.6,13.59,0.42,342.1
"2010-05-12 00:58:30",104257,7.969,26.28,8.95,0.814,-24.87,100.1368,-0.351,0.835,97.5,0,109.6,13.59,0.40,348.3
"2010-05-12 00:59:00",104258,7.984,28.54,1.755,0.775,-34.41,100.1348,-0.356,0.825,97.5,0,109.5,13.59,0.39,350.5
"2010-05-12 00:59:30",104259,8.41,28.01,3.427,0.826,-36.86,100.1342,-0.357,0.813,97.6,0,109.6,13.59,0.39,350.0
"2010-05-12 01:00:00",104260,9.38,30.75,4.939,0.738,-21.96,100.1339,-0.358,0.848,97.5,0,109.6,13.59,0.39,352.8
"2010-05-12 01:00:30",104261,9.29,30.03,3.235,0.711,-26.62,100.1339,-0.358,0.821,97.6,0,109.6,13.58,0.39,352.0
"2010-05-12 01:01:00",104262,9.76,30.61,2.666,0.581,-20.95,100.1342,-0.357,0.831,97.6,0,109.5,13.59,0.39,352.6
"2010-05-12 01:01:30",104263,9.45,31.55,3.817,0.674,-28.04,100.1325,-0.362,0.836,97.6,0,109.6,13.59,0.39,353.5
"2010-05-12 01:02:00",104264,9.53,31.17,3.948,0.536,-15.13,100.1368,-0.351,0.831,97.6,0,109.6,13.59,0.40,353.2
"2010-05-12 01:02:30",104265,9.5,29.26,4.213,0.642,-33.8,100.1373,-0.349,0.835,97.6,0,109.6,13.6,0.40,351.3
"2010-05-12 01:03:00",104266,9.66,31.05,3.665,0.618,-10.22,100.1385,-0.347,0.829,97.6,0,109.5,13.6,0.40,353.0
"2010-05-12 01:03:30",104267,9.67,31.54,3.617,0.716,6.551,100.1455,-0.329,0.846,97.6,0,109.6,13.6,0.42,353.5
"2010-05-12 01:04:00",104268,10.18,31.87,4.17,0.69,-6.726,100.1512,-0.314,0.854,97.6,0,109.6,13.6,0.44,353.9
"2010-05-12 01:04:30",104269,10.14,31.36,3.829,0.74,-10.95,100.1472,-0.324,0.859,97.6,0,109.6,13.6,0.43,353.4
"2010-05-12 01:05:00",104270,10.5,31.63,3.647,0.518,10.17,100.1447,-0.331,0.855,97.6,0,109.5,13.6,0.42,353.6
"2010-05-12 01:05:30",104271,10.02,32.79,3.819,0.623,-5.209,100.1509,-0.315,0.86,97.6,0,109.5,13.6,0.44,354.8
"2010-05-12 01:06:00",104272,10.02,32.66,4.061,0.871,8.93,100.1444,-0.331,0.851,97.6,0,109.6,13.6,0.42,354.7
"2010-05-12 01:06:30",104273,10.36,33.79,3.225,0.817,5.695,100.1359,-0.353,0.837,97.6,0,109.6,13.6,0.40,355.8
"2010-05-12 01:07:00",104274,10.79,33.71,3.547,0.699,6.674,100.1359,-0.353,0.835,97.6,0,109.5,13.6,0.40,355.7
"2010-05-12 01:07:30",104275,11.14,32.05,3.378,0.537,8.23,100.1277,-0.374,0.818,97.6,0,109.6,13.6,0.38,354.0
"2010-05-12 01:08:00",104276,11.26,32.7,2.451,0.775,7.825,100.1164,-0.403,0.798,97.6,0,109.6,13.6,0.35,354.7
"2010-05-12 01:08:30",104277,10.98,30.98,3.694,0.784,7.958,100.115,-0.406,0.809,97.6,0,109.6,13.6,0.34,353.0
"2010-05-12 01:09:00",104278,10.68,32.4,4.102,0.618,8.21,100.1158,-0.404,0.792,97.6,0,109.5,13.6,0.35,354.4
"2010-05-12 01:09:30",104279,10.87,31.95,3.402,0.727,8.14,100.1147,-0.407,0.807,97.7,0,109.6,13.6,0.34,354.0
"2010-05-12 01:10:00",104280,10.25,30.65,3.427,0.76,8.44,100.1141,-0.409,0.784,97.6,0,109.6,13.6,0.34,352.6
"2010-05-12 01:10:30",104281,10.36,31.47,4.077,0.803,4.315,100.1107,-0.417,0.775,97.6,0,109.6,13.6,0.33,353.5
"2010-05-12 01:11:00",104282,9.06,27.93,3.972,0.966,7.832,100.1084,-0.423,0.783,97.6,0,109.6,13.6,0.33,349.9
"2010-05-12 01:11:30",104283,10.36,30.97,3.316,0.758,8.19,100.1031,-0.437,0.791,97.7,0,109.5,13.6,0.31,353.0
"2010-05-12 01:12:00",104284,10.73,32.5,3.36,0.719,7.942,100.1025,-0.438,0.757,97.6,0,109.6,13.6,0.31,354.5
"2010-05-12 01:12:30",104285,10.4,31.19,3.547,0.705,7.941,100.1192,-0.396,0.787,97.7,0,109.6,13.6,0.35,353.2
"2010-05-12 01:13:00",104286,10.64,30.37,3.498,0.549,7.839,100.1308,-0.366,0.795,97.7,0,109.5,13.6,0.38,352.4
"2010-05-12 01:13:30",104287,10.16,30.32,3.799,1.15,5.09,100.1285,-0.372,0.816,97.7,0,109.6,13.59,0.38,352.3
"2010-05-12 01:14:00",104288,10.08,29.89,4.028,0.553,-17.37,100.1322,-0.362,0.8,97.7,0,109.6,13.59,0.39,351.9
"2010-05-12 01:14:30",104289,10.17,30.94,3.76,0.564,-24.52,100.1359,-0.353,0.815,97.7,0,109.5,13.59,0.40,352.9
"2010-05-12 01:15:00",104290,10.42,31.65,2.915,0.823,-29.89,100.1359,-0.353,0.801,97.7,0,109.5,13.59,0.40,353.6
"2010-05-12 01:15:30",104291,9.17,23.37,7.495,1.114,-15.59,100.132,-0.363,0.798,97.7,0,109.5,13.59,0.39,345.4
"2010-05-12 01:16:00",104292,8.29,25.83,6.22,0.766,-36.23,100.1334,-0.36,0.815,97.7,0,109.5,13.59,0.39,347.8
"2010-05-12 01:16:30",104293,8.3,22.85,6.955,0.595,-49.06,100.132,-0.363,0.82,97.7,0,109.5,13.59,0.39,344.9
"2010-05-12 01:17:00",104294,8.12,22.6,4.643,1.019,-40.8,100.1325,-0.362,0.788,97.7,0,109.5,13.59,0.39,344.6
"2010-05-12 01:17:30",104295,8.62,25.94,5.659,0.952,-20.56,100.1192,-0.396,0.807,97.7,0,109.6,13.6,0.35,347.9
"2010-05-12 01:18:00",104296,9.05,29.02,3.988,0.833,-19.66,100.1164,-0.403,0.813,97.7,0,109.6,13.59,0.35,351.0
"2010-05-12 01:18:30",104297,9.19,30.44,4.262,0.752,4.258,100.1271,-0.375,0.812,97.7,0,109.6,13.6,0.38,352.4
"2010-05-12 01:19:00",104298,9.65,28.76,4.485,0.914,9.26,100.1359,-0.353,0.809,97.7,0,109.5,13.6,0.40,350.8
"2010-05-12 01:19:30",104299,9.17,25.11,4.718,0.783,5.567,100.1359,-0.353,0.825,97.7,0,109.6,13.6,0.40,347.1
"2010-05-12 01:20:00",104300,9.65,29.18,3.961,0.776,10.42,100.1351,-0.355,0.812,97.8,0,109.5,13.6,0.40,351.2
"2010-05-12 01:20:30",104301,9.44,29.99,3.874,0.742,3.52,100.1189,-0.396,0.802,97.7,0,109.6,13.6,0.35,352.0
"2010-05-12 01:21:00",104302,9.76,30.49,4.201,0.569,-2.51,100.111,-0.417,0.789,97.7,0,109.5,13.6,0.33,352.5
"2010-05-12 01:21:30",104303,9.77,31.01,4.897,0.608,-0.832,100.1155,-0.405,0.806,97.8,0,109.5,13.6,0.35,353.0
"2010-05-12 01:22:00",104304,9.69,30.15,4.118,0.581,-2.287,100.1181,-0.399,0.792,97.7,0,109.5,13.6,0.35,352.1
"2010-05-12 01:22:30",104305,8.83,26.63,5.639,1.245,7.118,100.1169,-0.401,0.79,97.7,0,109.5,13.6,0.35,348.6
"2010-05-12 01:23:00",104306,9.77,32.21,3.204,0.698,9.09,100.1033,-0.436,0.787,97.7,0,109.5,13.6,0.31,354.2
"2010-05-12 01:23:30",104307,9.53,33.51,4.693,0.993,9.86,100.1033,-0.436,0.799,97.8,0,109.6,13.6,0.31,355.5
"2010-05-12 01:24:00",104308,9.53,33.65,3.499,0.941,-7.046,100.1158,-0.404,0.775,97.7,0,109.6,13.6,0.35,355.6
"2010-05-12 01:24:30",104309,9.53,32.93,4.704,0.648,3.055,100.1099,-0.419,0.778,97.8,0,109.5,13.6,0.33,354.9
"2010-05-12 01:25:00",104310,9.46,33.94,4.344,0.763,6.916,100.1019,-0.44,0.783,97.8,0,109.5,13.61,0.31,355.9
"2010-05-12 01:25:30",104311,8.78,34.35,4.074,0.784,8.27,100.1019,-0.44,0.765,97.8,0,109.5,13.61,0.31,356.4
"2010-05-12 01:26:00",104312,9.41,31.98,4.383,0.668,8.02,100.0997,-0.445,0.763,97.7,0,109.5,13.61,0.31,354.0
"2010-05-12 01:26:30",104313,8.94,33.88,4.515,0.665,8.15,100.0838,-0.486,0.717,97.7,0,109.5,13.61,0.26,355.9
"2010-05-12 01:27:00",104314,8.7,34.93,4.209,0.809,8.22,100.0813,-0.492,0.729,97.7,0,109.5,13.61,0.26,356.9
"2010-05-12 01:27:30",104315,8.93,33.15,4.548,0.813,7.969,100.0793,-0.497,0.721,97.8,0,109.6,13.61,0.25,355.1
"2010-05-12 01:28:00",104316,8.25,34.97,4.057,0.618,8.19,100.0838,-0.486,0.722,97.8,0,109.5,13.6,0.26,357.0
"2010-05-12 01:28:30",104317,8.19,34.58,4.161,0.577,8.46,100.0932,-0.462,0.727,97.8,0,109.5,13.6,0.29,356.6
"2010-05-12 01:29:00",104318,8.48,36.68,4.06,0.561,7.909,100.0937,-0.461,0.745,97.8,0,109.5,13.6,0.29,358.7
"2010-05-12 01:29:30",104319,8.35,37.09,3.805,0.68,7.927,100.0827,-0.489,0.718,97.8,0,109.5,13.6,0.26,359.1
"2010-05-12 01:30:00",104320,8.19,35.5,4.428,0.666,7.955,100.083,-0.488,0.713,97.8,0,109.5,13.6,0.26,357.5
"2010-05-12 01:30:30",104321,8.35,34.67,4.381,0.706,7.676,100.0815,-0.492,0.713,97.8,0,109.5,13.6,0.26,356.7
"2010-05-12 01:31:00",104322,7.92,36.15,3.425,0.59,7.641,100.0714,-0.518,0.719,97.8,0,109.5,13.6,0.23,358.1
"2010-05-12 01:31:30",104323,8.12,35.49,3.363,0.656,7.534,100.0685,-0.525,0.697,97.8,0,109.5,13.6,0.23,357.5
"2010-05-12 01:32:00",104324,8.37,35.11,4.257,0.43,7.64,100.068,-0.526,0.687,97.8,0,109.5,13.6,0.22,357.1
"2010-05-12 01:32:30",104325,8.09,35.87,4.345,0.62,7.653,100.0682,-0.526,0.706,97.8,0,109.5,13.6,0.22,357.9
"2010-05-12 01:33:00",104326,8.08,36.76,2.926,0.636,7.503,100.068,-0.526,0.689,97.8,0,109.5,13.6,0.22,358.8
"2010-05-12 01:33:30",104327,7.793,36.81,3.987,0.6,7.61,100.0682,-0.526,0.703,97.8,0,109.5,13.6,0.22,358.8
"2010-05-12 01:34:00",104328,7.525,38.86,4.201,0.608,7.451,100.0702,-0.521,0.697,97.8,0,109.5,13.61,0.23,0.9
"2010-05-12 01:34:30",104329,7.626,40.18,3.759,0.587,7.397,100.075,-0.508,0.702,97.8,0,109.5,13.61,0.24,2.2
"2010-05-12 01:35:00",104330,8.58,40.48,4.189,0.756,7.6,100.0725,-0.515,0.709,97.8,0,109.5,13.61,0.24,2.5
"2010-05-12 01:35:30",104331,8.33,38.79,4.368,0.76,7.942,100.068,-0.526,0.695,97.9,0,109.5,13.61,0.22,0.8
"2010-05-12 01:36:00",104332,7.632,39.34,4.146,0.712,5.75,100.068,-0.526,0.702,97.8,0,109.5,13.61,0.22,1.3
"2010-05-12 01:36:30",104333,7.58,39.32,3.921,0.727,7.709,100.068,-0.526,0.678,97.8,0,109.5,13.61,0.22,1.3
"2010-05-12 01:37:00",104334,7.549,40.71,3.963,0.541,7.592,100.068,-0.526,0.678,97.8,0,109.5,13.61,0.22,2.7
"2010-05-12 01:37:30",104335,7.708,39.46,3.96,0.547,5.385,100.068,-0.526,0.683,97.9,0,109.5,13.61,0.22,1.5
"2010-05-12 01:38:00",104336,7.877,39.05,4.592,0.575,3.517,100.0665,-0.53,0.685,97.8,0,109.5,13.61,0.22,1.0
"2010-05-12 01:38:30",104337,8.25,40.2,3.62,0.538,7.444,100.0603,-0.546,0.663,97.8,0,109.5,13.61,0.20,2.2
"2010-05-12 01:39:00",104338,8.7,39.24,3.851,0.677,6.728,100.0552,-0.559,0.662,97.8,0,109.5,13.61,0.19,1.2
"2010-05-12 01:39:30",104339,8.65,39.56,3.923,0.577,6.681,100.0405,-0.596,0.664,97.8,0,109.5,13.61,0.15,1.6
"2010-05-12 01:40:00",104340,8.65,37.71,3.793,0.725,6.277,100.0464,-0.581,0.645,97.8,0,109.5,13.61,0.17,359.7
"2010-05-12 01:40:30",104341,8.7,37.52,4.241,0.538,6.197,100.0467,-0.58,0.644,97.9,0,109.5,13.61,0.17,359.5
"2010-05-12 01:41:00",104342,8.73,38.44,3.441,0.668,6.09,100.0578,-0.552,0.675,97.9,0,109.5,13.61,0.20,0.4
"2010-05-12 01:41:30",104343,8.87,38.93,3.8,0.495,6.084,100.068,-0.526,0.683,97.9,0,109.5,13.61,0.22,0.9
"2010-05-12 01:42:00",104344,8.67,38.48,3.867,0.586,6.091,100.068,-0.526,0.683,97.9,0,109.5,13.61,0.22,0.5
"2010-05-12 01:42:30",104345,8.45,38.42,3.892,0.62,6.06,100.068,-0.526,0.675,97.9,0,109.5,13.61,0.22,0.4
"2010-05-12 01:43:00",104346,8.26,39.46,3.759,0.311,5.899,100.068,-0.526,0.677,97.9,0,109.5,13.61,0.22,1.5
"2010-05-12 01:43:30",104347,8.14,38.41,3.709,0.681,6.113,100.0725,-0.515,0.709,97.9,0,109.5,13.61,0.24,0.4
"2010-05-12 01:44:00",104348,8.2,38,3.776,0.724,6.427,100.0824,-0.49,0.723,97.9,0,109.5,13.61,0.26,0.0
"2010-05-12 01:44:30",104349,8.23,37.88,3.826,0.537,6.428,100.0824,-0.49,0.726,97.9,0,109.5,13.61,0.26,359.9
"2010-05-12 01:45:00",104350,8.53,37.16,3.815,0.426,6.633,100.0804,-0.495,0.724,97.9,0,109.5,13.6,0.26,359.2
"2010-05-12 01:45:30",104351,8.69,36.34,3.937,0.676,7.11,100.0815,-0.492,0.734,97.9,0,109.5,13.6,0.26,358.3
"2010-05-12 01:46:00",104352,8.2,37.54,3.931,0.579,6.837,100.081,-0.493,0.724,97.9,0,109.5,13.6,0.26,359.5
"2010-05-12 01:46:30",104353,7.913,38.14,4.157,0.513,6.255,100.0824,-0.49,0.732,97.9,0,109.5,13.6,0.26,0.1
"2010-05-12 01:47:00",104354,8.28,36.52,3.47,0.567,6.385,100.0864,-0.479,0.741,97.9,0,109.4,13.6,0.27,358.5
"2010-05-12 01:47:30",104355,8.14,37.16,4.196,0.584,7.607,100.0895,-0.471,0.744,97.9,0,109.5,13.6,0.28,359.2
"2010-05-12 01:48:00",104356,8.22,38.26,3.838,0.589,7.995,100.0997,-0.445,0.744,97.9,0,109.5,13.6,0.31,0.3
"2010-05-12 01:48:30",104357,8.4,36.92,4.451,0.543,8.12,100.1019,-0.44,0.764,98,0,109.5,13.6,0.31,358.9
"2010-05-12 01:49:00",104358,8.6,36.82,3.965,0.6,8.17,100.1019,-0.44,0.753,97.9,0,109.5,13.6,0.31,358.8
"2010-05-12 01:49:30",104359,8.67,37.63,4.351,0.586,7.737,100.1019,-0.44,0.772,98,0,109.5,13.6,0.31,359.6
"2010-05-12 01:50:00",104360,8.41,37.27,4.554,0.691,7.662,100.1019,-0.44,0.781,98,0,109.5,13.61,0.31,359.3